Vertical_Velocity
2 -3 -2 -4 -2 -2 1 1 0 -2 -3 3 -1 -1 -4 -5 1 -3 -3 -6 -6 -4 -5 6 6 7 13 1 1 9 21 -1 1 -5 -0 4 -11 -2 2 3 2 5 3 -2
-4 -1 -3 0 1 3 1 1 -2 -5 -1 -3 -1 -8 -4 -1 -6 -3 -1 -2 -6 -3 -5 -10 -3 -2 0 4 4 1 13 9 -1 0 -4 9 -6 -3 3 1 4 5 1 3
-4 -5 1 2 -0 1 -1 1 -1 -0 -2 -3 -1 -6 0 -5 2 2 -3 -5 2 -4 -6 -6 -3 -8 -2 -5 -2 3 4 11 3 3 6 6 8 7 3 -3 2 -3 0 0
-1 -1 -1 0 0 -1 0 0 -0 -1 -3 -3 -6 -10 -2 -2 -2 0 -2 2 -3 -3 -1 -2 -1 -1 -5 -2 -0 2 9 11 11 5 4 -8 -6 -8 -7 -3 2 2 1 1
-11 0 0 -0 -2 -1 -4 -2 -0 0 -0 -2 -3 2 -15 1 -1 -2 -1 1 2 -4 1 -1 -6 -4 -5 -1 -4 -5 13 2 14 5 -2 1 3 1 3 8 7 3 2 3
1 2 -2 -5 -0 -1 0 -3 -2 -1 -1 -2 -6 -4 -8 -2 -4 -1 -0 1 -1 0 1 6 2 6 6 12 10 1 -4 11 7 6 2 -2 -3 -2 -3 5 2 3 -1 2
-1 0 1 -2 -2 -1 -3 -4 -4 -6 -1 -7 -0 3 -13 -3 -3 -0 -1 -3 -1 -2 2 1 -4 0 2 -6 -8 -7 11 -2 7 4 4 -2 -5 4 5 5 3 -4 -4 -3
-3 -9 -2 -2 -5 -8 -1 -5 -5 -3 -1 -3 -1 -3 -19 -5 -2 -1 -2 1 2 1 -1 3 -1 1 -0 1 -6 -3 -9 9 3 6 8 4 4 0 3 4 5 0 -2 4
-2 -4 3 -1 -0 -10 -3 1 -6 -2 -1 -4 -4 -9 -9 -2 -2 -1 -1 -1 -2 -1 11 8 5 1 3 1 -5 -2 0 7 3 1 14 10 0 -2 -5 4 5 6 3 4
0 -3 -1 0 0 -3 -8 -5 -9 -4 -4 -2 -4 -1 -11 -3 -1 -1 -1 -1 -3 -2 -0 0 -4 -1 -4 -3 -7 -8 -1 -5 3 -1 14 5 2 -3 1 0 -0 5 8 3
-1 -6 -3 1 -1 -4 2 -0 -1 -6 -3 -3 -0 -9 -4 -3 -1 -0 -1 0 2 1 -4 -6 -3 -1 -2 -6 -6 -9 -10 0 4 8 7 3 -2 -5 3 1 0 4 6 5
-2 -3 -1 -10 -4 -3 -2 -3 -2 -4 -5 -2 -1 -18 -1 -1 -0 1 -1 -1 -2 -8 -2 7 -0 -4 -11 -5 -3 -3 10 4 4 12 -2 4 0 2 0 -0 4 4 1 3
-3 -1 -2 -4 -6 3 0 -1 -1 -1 -0 -6 4 -17 -1 -1 -3 -7 0 -2 -0 5 -4 -7 4 -0 -3 -5 -9 -6 -1 3 8 -3 -1 2 1 1 -1 1 2 3 4 4
-3 -0 -6 -7 -7 -3 0 0 -0 -1 3 -5 -13 -13 -14 -8 -1 -6 -6 -3 -1 -4 1 -5 -1 -2 -1 -7 -7 2 8 8 2 1 5 6 -1 2 2 3 1 3 3 -7
-5 -2 0 -1 -1 1 -2 -1 -1 3 -8 7 -21 3 -11 -2 1 -3 -0 3 1 2 -1 -1 -3 -4 -4 -3 2 -8 14 7 6 7 6 4 3 6 4 3 6 5 2 1
0 -1 0 -2 -1 1 0 -1 0 -0 -2 2 3 -12 2 -3 -3 -1 1 1 1 0 -4 -6 3 -2 -0 3 -3 5 8 7 13 10 1 4 1 4 9 12 10 -1 8 5
-2 -2 -1 -4 0 -1 -1 -5 -1 -1 -0 1 2 -12 -1 -6 -1 0 -2 1 -1 -3 -2 4 3 4 3 -3 14 6 -4 13 2 7 2 2 0 -0 -5 0 -7 9 3 5
-1 -0 -0 -2 -3 -3 -11 -1 -2 -1 -2 -0 -0 -2 1 -0 2 5 -0 5 0 0 5 -0 5 2 -0 1 10 6 5 4 1 -1 3 4 7 4 3 -7 -2 -12 9 2
-2 -1 -0 -0 -1 -10 -3 -2 -2 -4 -7 -1 -0 -2 -2 -0 5 -0 -1 2 5 8 5 4 4 2 2 1 1 2 3 3 8 3 0 -6 -7 -11 -2 -8 2 -4 -4 3
1 -1 -2 1 1 -1 -4 -1 0 -1 -4 -1 1 -1 1 -3 -2 0 -0 3 -0 -1 1 -1 -2 -4 -1 -0 1 -2 -5 -4 -6 2 -5 -3 -14 1 -0 1 -3 5 1 2
2 2 -1 -0 -0 -8 -4 -1 0 0 -14 -1 1 -0 0 -0 -0 2 2 1 2 4 1 -0 0 -2 -3 -2 -2 1 -1 3 6 -10 -10 1 11 -4 5 -0 7 1 2 3
-5 -3 -1 2 2 -8 -1 1 -1 -11 -1 -0 1 -1 -2 -2 0 -0 1 0 0 -1 -0 2 1 3 3 4 5 4 -0 2 -2 9 -13 10 12 -4 -3 5 2 2 5 3
-3 -9 -8 -8 -13 -5 -0 -2 3 0 1 -1 2 -1 -0 -2 -1 0 0 0 -1 1 -1 -4 -1 -2 0 -2 1 -2 -2 -4 2 1 3 3 2 4 4 2 3 1 0 -2
-2 1 1 -0 -7 -3 -1 -0 0 -0 0 0 0 -0 -1 -3 -2 1 1 -0 -2 0 -1 -1 -1 -1 -4 -1 1 2 -3 1 5 -5 -4 2 4 1 0 0 0 -2 -1 -1
-5 1 -0 -4 -4 -0 -1 -0 -1 -1 -1 0 2 2 0 -2 -1 -1 0 2 1 -2 1 2 1 -0 -0 1 2 -1 -5 -2 -3 2 1 -1 -2 -0 -1 1 1 -2 -1 0
-2 -6 -2 -6 -3 1 -2 -2 0 1 -1 -0 -1 -1 3 1 -1 -0 0 1 0 -1 -2 -1 -1 0 -0 0 -4 -3 2 3 2 -1 -1 -0 1 3 1 -1 -0 -1 -2 -2
Height
1478 1483 1486 1487 1486 1485 1486 1486 1487 1480 1476 1477 1475 1474 1470 1463 1462 1460 1457 1457 1457 1456 1458 1462 1464 1466 1468 1471 1473 1475 1476 1476 1479 1484 1487 1490 1495 1499 1503 1506 1506 1508 1512 1514
1482 1485 1482 1482 1484 1485 1486 1486 1486 1479 1472 1475 1474 1466 1461 1457 1451 1451 1450 1451 1450 1451 1452 1455 1457 1459 1461 1464 1466 1468 1470 1469 1471 1475 1480 1484 1488 1494 1497 1501 1502 1505 1509 1510
1480 1478 1473 1481 1483 1485 1485 1486 1486 1486 1478 1477 1476 1464 1452 1443 1441 1441 1441 1439 1441 1443 1444 1446 1449 1451 1453 1454 1457 1460 1462 1463 1464 1468 1474 1478 1483 1487 1492 1495 1497 1499 1503 1505
1475 1474 1475 1480 1484 1484 1489 1485 1484 1485 1489 1494 1484 1488 1459 1444 1440 1436 1432 1434 1435 1436 1437 1440 1442 1444 1446 1447 1450 1453 1456 1458 1457 1460 1464 1468 1472 1477 1480 1485 1489 1493 1497 1500
1477 1474 1476 1482 1483 1482 1487 1485 1486 1487 1494 1496 1490 1496 1462 1443 1440 1434 1433 1432 1431 1430 1432 1434 1435 1436 1438 1439 1442 1446 1450 1452 1451 1452 1457 1462 1466 1470 1476 1478 1482 1488 1491 1496
1473 1474 1478 1481 1482 1483 1484 1487 1489 1491 1500 1517 1486 1483 1464 1446 1436 1431 1430 1429 1429 1429 1430 1431 1432 1431 1431 1433 1436 1439 1442 1444 1446 1447 1450 1455 1457 1462 1469 1472 1475 1480 1485 1490
1475 1478 1479 1481 1485 1484 1486 1496 1525 1511 1505 1503 1473 1481 1453 1434 1430 1430 1429 1428 1427 1427 1427 1428 1429 1429 1427 1427 1431 1433 1435 1436 1437 1439 1444 1447 1451 1456 1462 1466 1469 1471 1477 1482
1492 1496 1481 1479 1483 1486 1488 1491 1511 1496 1504 1488 1473 1467 1445 1429 1425 1426 1426 1424 1424 1423 1423 1423 1424 1424 1424 1422 1424 1429 1431 1431 1431 1434 1437 1441 1444 1451 1456 1460 1464 1468 1471 1477
1491 1484 1474 1476 1478 1482 1489 1496 1490 1500 1493 1514 1479 1454 1434 1423 1425 1424 1422 1421 1420 1418 1417 1419 1420 1420 1420 1418 1419 1423 1424 1424 1424 1430 1433 1433 1435 1446 1450 1455 1461 1464 1467 1473
1469 1483 1474 1478 1480 1479 1483 1483 1502 1512 1523 1497 1471 1458 1443 1430 1427 1425 1423 1422 1420 1418 1417 1416 1417 1416 1416 1414 1414 1417 1418 1416 1416 1421 1428 1427 1433 1441 1444 1451 1455 1459 1463 1469
1465 1474 1484 1480 1481 1481 1483 1490 1489 1494 1501 1507 1487 1457 1429 1427 1426 1426 1424 1421 1420 1416 1414 1411 1410 1411 1410 1408 1410 1409 1410 1408 1410 1413 1419 1422 1428 1435 1440 1447 1451 1454 1459 1465
1466 1475 1489 1481 1473 1473 1476 1481 1484 1499 1498 1493 1493 1445 1422 1421 1424 1423 1420 1417 1416 1416 1414 1409 1406 1405 1404 1403 1403 1401 1400 1402 1406 1408 1413 1420 1427 1430 1437 1442 1446 1450 1456 1463
1465 1478 1494 1475 1475 1472 1475 1474 1474 1478 1483 1475 1483 1443 1421 1419 1418 1418 1416 1412 1408 1405 1405 1405 1404 1401 1400 1398 1396 1394 1394 1397 1396 1403 1408 1415 1422 1428 1432 1437 1441 1448 1454 1461
1462 1470 1482 1481 1478 1470 1479 1471 1470 1473 1478 1465 1448 1436 1424 1423 1419 1417 1413 1409 1405 1401 1398 1400 1400 1396 1394 1391 1389 1389 1389 1390 1393 1398 1403 1409 1417 1423 1428 1433 1439 1445 1453 1458
1463 1478 1477 1469 1466 1467 1469 1467 1466 1469 1461 1465 1432 1436 1420 1419 1415 1411 1407 1403 1400 1398 1399 1397 1395 1392 1389 1385 1383 1383 1387 1386 1388 1394 1401 1406 1415 1421 1427 1432 1438 1446 1451 1458
1464 1474 1475 1475 1463 1463 1464 1458 1457 1455 1453 1446 1440 1428 1419 1415 1410 1405 1403 1401 1398 1397 1394 1393 1392 1390 1387 1383 1380 1383 1385 1385 1389 1393 1401 1406 1413 1421 1429 1436 1441 1446 1452 1457
1465 1473 1481 1482 1458 1460 1458 1445 1442 1439 1436 1436 1433 1422 1417 1411 1407 1405 1403 1399 1395 1392 1391 1390 1389 1388 1386 1385 1384 1383 1380 1391 1390 1394 1401 1408 1415 1423 1429 1437 1441 1449 1455 1459
1465 1470 1476 1476 1467 1465 1434 1428 1428 1433 1429 1427 1425 1419 1416 1410 1407 1406 1403 1397 1392 1389 1387 1387 1388 1389 1389 1390 1386 1386 1388 1391 1394 1400 1406 1412 1419 1426 1433 1440 1447 1454 1460 1463
1457 1464 1467 1469 1473 1450 1430 1429 1430 1433 1427 1422 1420 1417 1412 1409 1407 1406 1405 1400 1396 1391 1390 1390 1392 1393 1393 1395 1394 1394 1395 1398 1401 1408 1414 1421 1428 1433 1432 1433 1442 1450 1457 1461
1457 1459 1464 1463 1464 1452 1429 1425 1426 1428 1426 1416 1416 1414 1411 1409 1406 1409 1408 1404 1400 1397 1396 1396 1396 1397 1398 1399 1401 1402 1404 1408 1411 1415 1417 1422 1430 1433 1442 1444 1449 1455 1458 1460
1454 1457 1458 1459 1457 1446 1427 1424 1426 1430 1425 1413 1412 1411 1409 1410 1414 1411 1409 1405 1403 1402 1401 1400 1400 1400 1401 1404 1406 1406 1408 1412 1417 1421 1427 1434 1437 1439 1447 1449 1454 1455 1457 1458
1448 1452 1451 1454 1455 1451 1418 1425 1427 1416 1410 1410 1409 1409 1409 1410 1412 1412 1410 1407 1406 1406 1405 1405 1404 1404 1403 1406 1408 1410 1415 1418 1423 1426 1434 1440 1441 1446 1450 1452 1453 1454 1455 1454
1442 1437 1441 1441 1435 1418 1417 1415 1414 1412 1410 1408 1408 1407 1407 1409 1412 1413 1412 1411 1411 1411 1410 1411 1411 1411 1413 1416 1418 1419 1423 1427 1431 1433 1438 1444 1446 1447 1449 1451 1452 1452 1453 1453
1427 1425 1427 1428 1417 1417 1416 1413 1412 1410 1408 1406 1406 1406 1406 1408 1411 1414 1415 1413 1413 1415 1415 1416 1417 1418 1420 1423 1425 1427 1430 1435 1438 1440 1444 1446 1447 1448 1449 1451 1452 1453 1453 1452
1430 1426 1424 1424 1416 1414 1412 1411 1410 1408 1406 1405 1405 1406 1406 1408 1411 1414 1416 1417 1416 1417 1419 1421 1422 1423 1424 1428 1431 1435 1438 1441 1443 1445 1446 1447 1449 1451 1452 1452 1452 1452 1452 1451
1422 1421 1423 1420 1414 1412 1411 1410 1409 1407 1406 1405 1405 1407 1407 1408 1410 1413 1416 1418 1419 1420 1422 1424 1426 1427 1429 1433 1436 1440 1443 1445 1446 1447 1448 1450 1451 1451 1451 1451 1451 1451 1449 1448